Regional Weather Roundup
Issued by NWS Sioux Falls, SD

Home | Current Version | Previous Version | Text Only | Print | Product List | Glossary On
Versions: 1 2 3 4 5 6 7 8 9 10 11 12 13 14 15 16 17 18 19 20 21 22 23 24 25 26 27 28 29 30 31 32 33 34 35 36 37 38 39 40 41 42 43 44 45 46 47 48 49 50
000
ASUS43 KFSD 281410
RWRFSD

WEATHER ROUNDUP FOR SE SOUTH DAKOTA/SW MINNESOTA/NW IOWA
NATIONAL WEATHER SERVICE SIOUX FALLS SD
900 AM CDT THU AUG 28 2014

NOTE: "FAIR" INDICATES FEW OR NO CLOUDS BELOW 12,000 FEET WITH NO
SIGNIFICANT WEATHER AND OR OBSTRUCTIONS TO VISIBILITY.


SDZ038>040-050-052>070-281500-
SOUTHEAST SOUTH DAKOTA

CITY           SKY/WX    TMP DP  RH WIND       PRES   REMARKS
CHAMBERLAIN    CLOUDY    67  66  99 E5        29.91R
HURON          HVY RAIN  67  66  97 E8        29.93S VSB 1
MADISON        LGT RAIN  64  64 100 SE10      29.97S
MITCHELL       RAIN      68  68 100 SE14      29.92F FOG
SIOUX FALLS    LGT RAIN  68  66  93 SE10      29.95F FOG
WINNER         CLOUDY    69  67  93 E5        29.91R
YANKTON        CLOUDY    68  66  94 SE10      29.92S
$$

MNZ071-072-080-081-089-090-097-098-281500-
SOUTHWEST MINNESOTA

CITY           SKY/WX    TMP DP  RH WIND       PRES   REMARKS
FAIRMONT       CLOUDY    61  57  88 SE9       30.04F
JACKSON        LGT RAIN  63  61  94 SE9       30.03F
LUVERNE        DRIZZLE   68  64  88 SE8       29.98F
MARSHALL       CLOUDY    64  59  82 SE10      29.99F
MONTEVIDEO     CLOUDY    64  63  94 S9        30.02S
PIPESTONE      LGT RAIN  64  64 100 SE10      29.99F
REDWOOD FALLS  CLOUDY    64  60  87 SE10      30.02S
TRACY          CLOUDY    64  62  93 SE7       30.01F
WINDOM         LGT RAIN  64  63  94 SE9       30.03F
WORTHINGTON    CLOUDY    64  64 100 SE8       30.02F
$$

IAZ001>003-012>014-020>022-031-032-NEZ013-014-SDZ071-281500-
NORTHWEST IOWA

CITY           SKY/WX    TMP DP  RH WIND       PRES   REMARKS
DENISON        CLOUDY    68  68 100 SE8G20    29.95F
ESTHERVILLE    HVY RAIN  63  63 100 SE12      30.02F FOG
LE MARS        CLOUDY    68  68 100 SE7G14    29.95S FOG
ORANGE CITY    LGT RAIN  70  66  88 SE6       29.97F
SHELDON        CLOUDY    66  66 100 E8        29.97F FOG
SIOUX CITY     CLOUDY    69  68  96 SE7       29.94S
SPENCER        LGT RAIN  65  64  97 SE13      30.00F
STORM LAKE     CLOUDY    66  66 100 SE14G20   29.97F FOG
$$

ABBREVIATIONS USED IN REMARKS
   TC - TEMPERATURE IN CELSIUS
  WCI - WIND CHILL INDEX
   HX - HEAT INDEX
  VSB - VISIBILITY




USA.gov is the U.S. government's official web portal to all federal, state and local government web resources and services.